Regional Weather Roundup
Issued by NWS Cleveland, OH

Home | Current Version | Previous Version | Graphics & Text | Print | Product List | Glossary On
Versions: 1 2 3 4 5 6 7 8 9 10 11 12 13 14 15 16 17 18 19 20 21 22 23 24 25 26 27 28 29 30 31 32 33 34 35 36 37 38 39 40 41 42 43 44 45 46 47 48 49 50
930
ASUS41 KCLE 281510
RWRCLE
OHIO REGIONAL WEATHER ROUNDUP
NATIONAL WEATHER SERVICE WILMINGTON, OH
1100 AM EDT SUN MAY 28 2017

NOTE: "FAIR" INDICATES FEW OR NO CLOUDS BELOW 12,000 FEET WITH NO
SIGNIFICANT WEATHER AND/OR OBSTRUCTIONS TO VISIBILITY.

OHZ001>008-015>018-024>027-034-035-043-044-281600-
   NORTHWEST OHIO

CITY           SKY/WX    TMP DP  RH WIND       PRES   REMARKS
DEFIANCE       CLOUDY    67  61  81 SE5       29.74F
FINDLAY        CLOUDY    70  65  84 S8        29.74F
TOLEDO EXPRESS PTSUNNY   71  63  75 VRB6      29.74F
TOLEDO EXEC    FAIR      72  63  73 CALM      29.75F
LIMA           CLOUDY    67  66  97 S10       29.74F FOG
$$

OHZ009>014-019>023-028>033-038-089-281600-
   NORTHEAST OHIO

CITY           SKY/WX    TMP DP  RH WIND       PRES   REMARKS
CLE-HOPKINS    PTSUNNY   77  64  64 S9        29.78F
CLE-LAKEFRONT  FAIR      67  59  75 N7        29.76F
CUY CO. ARPT   PTSUNNY   75  63  64 S7        29.79S
LORAIN-ELYRIA  FAIR      75  62  64 S7        29.77F
ASHTABULA      FAIR      72  62  71 SE8       29.80F
AKRON-CANTON   PTSUNNY   73  63  70 VRB7      29.81R
WOOSTER        CLOUDY    70  65  84 S10       29.80S
MANSFIELD      CLOUDY    68  65  90 S10       29.79S
YOUNGSTOWN     PTSUNNY   73  61  65 SW7       29.81R
$$

OHZ042-051>053-060>062-070>072-077>081-281600-
  SOUTHWEST OHIO

CITY           SKY/WX    TMP DP  RH WIND       PRES   REMARKS
CINC-COVINGTON CLOUDY    70  62  76 S13       29.79F
CINC-LUNKEN    PTSUNNY   71  65  81 SW10      29.79F
HAMILTON       FAIR      72  64  76 VRB7      29.78F
DAYTON         CLOUDY    70  63  78 S12       29.76F
WRIGHT-PAT AFB PTSUNNY   73  66  80 S9G18     29.76F
DAYTON GENERAL FAIR      70  62  76 S12       29.77F
WILMINGTON     PTSUNNY   69  64  84 SW13      29.79F
$$

OHZ036-037-039>041-045>050-054>059-063>069-073>076-082>088-281600-
  CENTRAL AND SOUTHEAST OHIO

CITY           SKY/WX    TMP DP  RH WIND       PRES   REMARKS
COLUMBUS       CLOUDY    72  65  78 S9        29.78F
OSU AIRPORT    FAIR      73  66  78 S10       29.77F
BOLTON FIELD   PTSUNNY   72  64  78 S14G23    29.79F
RICKENBACK AFB FAIR      72  64  76 SW12      29.79S
NEWARK         FAIR      73  63  70 SW9       29.79S
MARION         CLOUDY    70  64  81 S15       29.77F
LANCASTER      PTSUNNY   74  64  71 SW10      29.80S
ZANESVILLE     FAIR      73  63  70 SW9       29.80S
NEW PHILLY     CLOUDY    68  65  90 SE5       29.81R
$$




USA.gov is the U.S. government's official web portal to all federal, state and local government web resources and services.